Preview of NWS' New Version of Forecast
This preview is not operational and should not be used for support decisions.
Latest weather observations around

Craig Field / Selma (KSEM)

Using International System of Units (Switch to English Units)
Date/ Time (CST) Wind (kph) Vis. (km) Weather Sky Cond. Temp (°C) Rel. Humidity Wind Chill (°C) Heat Index (°C) Pressure Precip. (cm)
Air Dwpt 6 hour Altimeter (hPa) Sea level (hPa) 1 hr 3 hr 6 hr
Max Min
Feb 22 05:55 SE 9 1.21 Fog/Mist BKN003 17 16     94%     1027.4        
Feb 22 05:35 SE 11 0.4 Fog VV002 17 16     94%     1027.4        
Feb 22 05:15 SE 9 0.8 Fog VV005 17 16     94%     1027.1        
Feb 22 04:55 SE 9 0.4 Fog VV 16 16     100%     1027.1        
Feb 22 04:35 SE 8 2.41 Fog/Mist CLR 17 16     94%     1027.1        
Feb 22 04:15 ESE 9 11.27 Clear CLR 18 17     94%     1026.8        
Feb 22 03:55 ESE 8 12.87 Clear CLR 18 17     94%     1027.1        
Feb 22 03:35 SE 8 9.66 Fog/Mist CLR 18 17     94%     1026.8        
Feb 22 03:15 Calm 16.09 Clear CLR 19 18     94%     1026.8        
Feb 22 02:55 Calm 16.09 Clear CLR 19 18     94%     1026.8        
Feb 22 02:35 SSE 9 16.09 Clear CLR 19 18     94%     1026.4        
Feb 22 02:15 SSE 11 16.09 Mostly Clear FEW012 20 18     88%     1026.4        
Feb 22 01:55 SSE 13 16.09 Mostly Cloudy BKN013 20 18     88%     1026.8        
Feb 22 01:35 SSE 15 16.09 Mostly Cloudy SCT013 BKN047 20 18     88%     1026.8        
Feb 22 01:15 SSE 13 16.09 Cloudy BKN010 OVC047 21 19     88%     1027.1        
Feb 22 00:55 S 18 16.09 Cloudy OVC009 21 19     88%     1027.4        
Feb 22 00:35 S 13 16.09 Cloudy OVC012 20 19     94%     1027.4        
Feb 22 00:15 S 5 16.09 Mostly Cloudy BKN012 19 18     94%     1027.1        
Feb 21 23:55 S 8 16.09 Mostly Clear FEW014 19 17     88%     1027.1        
Feb 21 23:35 SSE 5 16.09 Clear CLR 20 18     88%     1027.1        
Feb 21 23:15 SSE 5 16.09 Clear CLR 20 18     88%     1027.1        
Feb 21 22:55 SSE 9 16.09 Mostly Clear FEW023 21 18     83%     1026.8        
Feb 21 22:35 S 11 16.09 Mostly Clear FEW022 21 18     83%     1026.8        
Feb 21 22:15 S 13 16.09 Mostly Clear FEW027 21 18     83%     1026.8        
Feb 21 21:55 S 13 16.09 Partly Cloudy SCT027 21 18     83%     1026.4        
Feb 21 21:35 S 15 16.09 Clear CLR 22 18     78%   22 1026.4        
Feb 21 21:15 S 15 16.09 Clear CLR 22 18     78%   22 1026.1        
Feb 21 20:55 S 15 16.09 Clear CLR 22 17     73%   22 1025.7        
Feb 21 20:35 S 13 16.09 Clear CLR 22 17     73%   22 1025.7        
Feb 21 20:15 S 15 16.09 Clear CLR 23 17     69%   23 1025.4        
Feb 21 19:55 S 15 16.09 Clear CLR 23 17     69%   23 1025.4        
Feb 21 19:35 S 13 16.09 Clear CLR 23 17     69%   23 1025.4        
Feb 21 19:15 SSE 15 16.09 Clear CLR 23 16     65%   23 1025.1        
Feb 21 18:55 S 17 16.09 Clear CLR 24 16     61%   24 1025.1        
Feb 21 18:35 SSE 15 16.09 Clear CLR 24 16     61%   24 1024.7        
Feb 21 18:15 S 15 16.09 Clear CLR 24 16     61%   24 1024.7        
Feb 21 17:55 S 15 16.09 Clear CLR 25 16     57%   25 1024.4        
Feb 21 17:35 S 15 16.09 Clear CLR 26 16     54%   26 1024.1        
Feb 21 17:15 SSE 18 16.09 Clear CLR 27 15     48%   27 1023.7        
Feb 21 16:55 SSE 24 16.09 Mostly Clear FEW080 27 16     51%   27 1023.7        
Feb 21 16:35 SSE 15 16.09 Mostly Cloudy SCT080 BKN090 28 16     48%   28 1023.7        
Feb 21 16:15 SSE 18 16.09 Partly Cloudy FEW055 SCT085 28 16     48%   28 1023.7        
Feb 21 15:55 SSE 13 16.09 Mostly Clear FEW055 28 16     48%   28 1023.7        
Feb 21 15:35 S 21 16.09 Clear CLR 28 16     48%   28 1023.4        
Feb 21 15:15 SSE 15 16.09 Mostly Clear FEW095 29 17     48%   29 1023.4        
Feb 21 14:55 SSE 15 16.09 Mostly Cloudy BKN095 28 17     51%   29 1023.7        
Feb 21 14:35 SSE 17 16.09 Mostly Cloudy BKN090 29 18     52%   30 1024.1        
Feb 21 14:15 SSE 17 16.09 Mostly Cloudy BKN085 28 18     55%   29 1024.4        
Feb 21 13:55 S 18 16.09 Mostly Cloudy BKN085 28 18     55%   29 1024.4        
Feb 21 13:35 S 18 16.09 Mostly Cloudy SCT070 BKN080 27 17     54%   28 1024.7        
Feb 21 13:15 S 21 16.09 Mostly Cloudy FEW041 BKN075 27 17     54%   28 1025.1        
Feb 21 12:55 SSE 18 16.09 Mostly Cloudy FEW042 SCT055 BKN075 28 18     55%   29 1025.1        
Feb 21 12:35 S 17 16.09 Cloudy FEW042 SCT055 OVC070 27 18     58%   28 1025.4        
Feb 21 12:15 S 21 16.09 Mostly Cloudy SCT039 BKN060 BKN065 27 18     58%   28 1025.7        
Feb 21 11:55 S 21 16.09 Partly Cloudy SCT038 SCT048 SCT065 26 18     61%   26 1026.1        
Feb 21 11:35 S 18 16.09 Mostly Cloudy FEW033 SCT043 BKN055 26 18     61%   26 1026.4        
Feb 21 11:15 S 21 16.09 Mostly Cloudy SCT030 SCT037 BKN046 26 18     61%   26 1026.8        
Feb 21 10:55 S 17 16.09 Mostly Cloudy BKN029 BKN036 BKN045 26 19     65%   26 1027.1        
Feb 21 10:35 SSE 22 16.09 Cloudy BKN028 OVC035 25 19     69%   25 1027.4        
Feb 21 10:15 SSW 11 16.09 Cloudy FEW023 BKN030 OVC037 25 19     69%   25 1027.4        
Feb 21 09:55 S 18 16.09 Cloudy BKN022 BKN029 OVC037 24 19     74%   24 1027.4        
Feb 21 09:35 S 11 16.09 Cloudy BKN022 OVC028 24 19     74%   24 1027.8        
Feb 21 09:15 S 18 16.09 Cloudy BKN020 BKN026 OVC030 24 19     74%   24 1027.8        
Feb 21 08:55 SSE 17 16.09 Mostly Cloudy FEW019 BKN029 24 19     74%   24 1027.4        
Feb 21 08:35 SSE 13 16.09 Partly Cloudy FEW014 FEW023 SCT027 23 19     78%   23 1027.4        
Feb 21 08:15 SSE 13 16.09 Partly Cloudy FEW013 SCT022 22 19     83%   22 1027.1        
Feb 21 07:55 SSE 11 16.09 Partly Cloudy FEW011 SCT020 21 19     88%     1027.1        
Feb 21 07:35 ESE 9 16.09 Clear CLR 20 19     94%     1026.8        
Feb 21 07:15 ESE 8 16.09 Mostly Cloudy BKN007 BKN045 BKN080 20 19     94%     1026.8        
Feb 21 06:55 Calm 16.09 Cloudy OVC007 20 19     94%     1026.4        
Feb 21 06:35 ESE 8 16.09 Mostly Cloudy BKN007 BKN010 BKN045 20 18     88%     1026.1        
Feb 21 06:15 SE 11 16.09 Mostly Cloudy SCT010 BKN047 BKN065 19 18     94%     1026.1        
Feb 21 05:55 ESE 11 16.09 Cloudy OVC012 20 18     88%     1026.1        
Feb 21 05:35 ESE 11 16.09 Cloudy BKN013 BKN044 OVC055 20 18     88%     1026.1        
Feb 21 05:15 SE 11 16.09 Cloudy OVC055 20 18     88%     1025.7        
Feb 21 04:55 ESE 11 16.09 Cloudy BKN055 OVC070 20 18     88%     1026.1        
Feb 21 04:35 ESE 9 16.09 Partly Cloudy FEW018 SCT055 SCT075 20 18     88%     1026.1        
Feb 21 04:15 ESE 9 16.09 Mostly Cloudy BKN017 20 18     88%     1025.7        
Feb 21 03:55 SE 8 16.09 Mostly Cloudy BKN016 BKN070 BKN085 19 18     94%     1025.7        
Feb 21 03:35 SE 9 16.09 Partly Cloudy SCT065 SCT090 20 18     88%     1025.7        
Feb 21 03:15 SE 11 16.09 Mostly Cloudy BKN065 BKN075 20 18     88%     1025.7        
Feb 21 02:55 SE 8 16.09 Mostly Cloudy FEW055 BKN065 BKN075 20 18     88%     1025.7        
Feb 21 02:35 SSE 9 16.09 Cloudy SCT025 BKN055 OVC075 21 19     88%     1025.7        
Feb 21 02:15 SSE 11 16.09 Cloudy OVC025 21 19     88%     1025.7        
Feb 21 01:55 SSE 11 16.09 Cloudy BKN025 OVC030 21 19     88%     1025.7        
Feb 21 01:35 SE 11 16.09 Mostly Cloudy SCT025 BKN050 BKN060 20 19     94%     1025.7        
Feb 21 01:15 SE 11 16.09 Mostly Cloudy FEW043 BKN050 20 19     94%     1025.7        
Feb 21 00:55 SE 9 16.09 Mostly Clear FEW035 20 18     88%     1025.7        
Feb 21 00:35 S 9 16.09 Partly Cloudy SCT036 SCT110 21 18     83%     1025.7        
Feb 21 00:15 S 11 16.09 Clear CLR 21 19     88%     1025.4        
Feb 20 23:55 SSE 15 16.09 Mostly Cloudy SCT025 BKN030 21 19     88%     1025.4        
Feb 20 23:35 SSE 17 16.09 Mostly Cloudy BKN024 21 19     88%     1025.4        
Feb 20 23:15 SSE 13 16.09 Partly Cloudy SCT021 SCT080 21 18     83%     1025.4        
Feb 20 22:55 SSE 15 16.09 Mostly Cloudy SCT021 BKN075 21 18     83%     1025.1        
Feb 20 22:35 SSE 17 16.09 Cloudy OVC075 21 19     88%     1025.1        
Feb 20 22:15 SSE 18 16.09 Mostly Cloudy FEW015 BKN075 21 19     88%     1025.1        
Feb 20 21:55 SSE 15 16.09 Mostly Clear FEW075 21 18     83%     1024.7        
Feb 20 21:35 SE 11 16.09 Clear CLR 21 18     83%     1024.7        
Feb 20 21:15 SSE 13 16.09 Clear CLR 22 18     78%   22 1024.7        
Feb 20 20:55 SSE 15 16.09 Clear CLR 22 18     78%   22 1024.4        
Feb 20 20:35 S 17 16.09 Partly Cloudy FEW075 SCT110 23 18     73%   23 1024.4        
Feb 20 20:15 SSE 18 16.09 Cloudy BKN075 BKN085 OVC110 23 18     73%   23 1024.4        
Feb 20 19:55 SSE 18 16.09 Cloudy OVC070 23 18     73%   23 1024.1        
Feb 20 19:35 SSE 11 16.09 Mostly Cloudy BKN070 22 17     73%   22 1024.1        
Feb 20 19:15 SSE 11 16.09 Clear CLR 22 17     73%   22 1023.7        
Feb 20 18:55 SE 11 16.09 Clear CLR 22 17     73%   22 1023.7        
Feb 20 18:35 SSE 13 16.09 Clear CLR 23 17     69%   23 1023.7        
Feb 20 18:15 SSE 11 16.09 Mostly Clear FEW090 23 17     69%   23 1023.7        
Feb 20 17:55 SSE 13 16.09 Mostly Cloudy BKN095 24 17     65%   24 1023.4        
Feb 20 17:35 S 18 16.09 Mostly Clear FEW090 25 16     57%   25 1023.4        
Feb 20 17:15 S 21 16.09 Partly Cloudy FEW048 SCT090 25 16     57%   25 1023.4        
Feb 20 16:55 S 22 16.09 Mostly Cloudy SCT048 SCT060 BKN090 27 16     51%   27 1023        
Feb 20 16:35 SSE 26 16.09 Partly Cloudy FEW047 FEW055 SCT090 27 16     51%   27 1022.7        
Feb 20 16:15 S 13 16.09 Mostly Clear FEW095 28 17     51%   29 1022.7        
Feb 20 15:55 SSE 13 16.09 Partly Cloudy FEW046 FEW055 SCT080 27 17     54%   28 1022.7        
Feb 20 15:35 SSE 17 16.09 Mostly Cloudy FEW044 SCT055 BKN080 27 17     54%   28 1022.7        
Feb 20 15:15 S 18 16.09 Mostly Cloudy FEW047 BKN090 28 17     51%   29 1022.7        
Feb 20 14:55 SSE 26 16.09 Cloudy FEW065 OVC085 27 17     54%   28 1022.7        
Feb 20 14:35 SSE 24 16.09 Mostly Cloudy FEW060 FEW065 BKN080 27 17     54%   28 1022.7        
Feb 20 14:15 S 22 16.09 Mostly Cloudy FEW050 FEW060 BKN080 27 17     54%   28 1022.7        
Feb 20 13:55 SSE 21 16.09 Mostly Cloudy SCT050 BKN080 27 16     51%   27 1023        
Feb 20 13:35 S 21 16.09 Mostly Cloudy FEW048 FEW055 BKN075 27 16     51%   27 1023        
Feb 20 13:15 S 22 16.09 Mostly Cloudy FEW043 SCT049 BKN075 28 16     48%   28 1023        
Feb 20 12:55 SSE 18 16.09 Mostly Cloudy SCT043 SCT049 BKN060 27 17     54%   28 1023.4        
Feb 20 12:35 S 22 16.09 Mostly Cloudy SCT043 SCT048 BKN065 28 17     51%   29 1023.7        
Feb 20 12:15 SSE 26 16.09 Partly Cloudy FEW046 FEW055 SCT065 27 16     51%   27 1024.1        
Feb 20 11:55 S 30 16.09 Partly Cloudy FEW041 SCT048 SCT055 27 17     54%   28 1024.4        
Feb 20 11:35 SSE 26 16.09 Mostly Cloudy BKN043 BKN049 27 16     51%   27 1024.7        
Feb 20 11:15 SSE 26 16.09 Mostly Cloudy BKN043 26 16     54%   26 1025.1        
Feb 20 10:55 S 18 16.09 Mostly Clear FEW070 26 17     58%   26 1025.4        
Feb 20 10:35 SE 17 16.09 Partly Cloudy SCT070 25 17     61%   25 1025.4        
Feb 20 10:15 SE 17 16.09 Mostly Clear FEW070 25 17     61%   25 1025.4        
Feb 20 09:55 SE 17 16.09 Clear CLR 24 17     65%   24 1025.4        
Feb 20 09:35 SE 21 16.09 Clear CLR 23 17     69%   23 1025.7        
Feb 20 09:15 SE 21 16.09 Mostly Clear FEW055 22 16     69%   22 1025.7        
Feb 20 08:55 ESE 17 16.09 Clear CLR 21 16     73%     1025.4        
Feb 20 08:35 SE 18 16.09 Partly Cloudy SCT055 20 16     78%     1025.4        
Feb 20 08:15 ESE 15 16.09 Cloudy SCT050 OVC055 18 16     88%     1025.1        
Feb 20 07:55 SE 11 16.09 Partly Cloudy SCT050 17 15     88%     1025.1        
Feb 20 07:35 SE 11 16.09 Mostly Clear FEW050 16 15     94%     1025.1        
Feb 20 07:15 SE 9 16.09 Clear CLR 15 15     100%     1024.7        
Feb 20 06:55 SE 8 16.09 Clear CLR 15 14     94%     1024.4        
Feb 20 06:35 ESE 9 0.4 Fog BKN055 13 12     94%     1024.4        
Feb 20 06:15 Calm 0.4 Fog BKN060 13 12     94%     1024.7        
Feb 20 05:55 Calm 0.8 Fog BKN060 14 13     94%     1024.7        
Feb 20 05:35 Calm 2.82 Fog/Mist BKN060 14 14     100%     1024.7        
Feb 20 05:15 Calm 6.44 Fog/Mist CLR 13 12     94%     1024.7        
Feb 20 04:55 E 5 4.02 Fog/Mist CLR 12 12     100%     1024.7        
Feb 20 04:35 Calm 0.4 Fog VV002 14 13     94%     1024.4        
Feb 20 04:15 Calm 0.4 Fog VV002 14 13     94%     1024.4        
Feb 20 03:55 Calm 11.27 Clear CLR 15 14     94%     1024.1        
Feb 20 03:35 SE 5 0.8 Fog/Mist VV005 13 13     100%     1024.1        
Feb 20 03:15 Calm 0.4 Fog VV002 14 13     94%     1024.1        
Feb 20 02:55 ESE 5 12.87 Clear CLR 15 14     94%     1024.1        
Feb 20 02:35 Calm 16.09 Clear CLR 15 15     100%     1024.1        
Feb 20 02:15 Calm 16.09 Clear CLR 15 14     94%     1024.1        
Feb 20 01:55 SE 5 16.09 Clear CLR 16 15     94%     1024.1        
Feb 20 01:35 SE 9 16.09 Clear CLR 16 14     88%     1023.7        
Feb 20 01:15 SE 11 16.09 Clear CLR 17 14     83%     1023.7        
Feb 20 00:55 SSE 13 16.09 Clear CLR 18 15     83%     1023.7        
Feb 20 00:35 SE 13 16.09 Clear CLR 18 15     83%     1023.7        
Feb 20 00:15 SE 15 16.09 Clear CLR 19 15     78%     1023.7        
Feb 19 23:55 SE 15 16.09 Clear CLR 18 14     77%     1023.4        
Feb 19 23:35 SSE 11 16.09 Clear CLR 18 14     77%     1023.4        
Feb 19 23:15 SSE 15 16.09 Clear CLR 19 14     73%     1023.4        
Feb 19 22:55 SSE 13 16.09 Clear CLR 19 14     73%     1023.7        
Feb 19 22:35 SSE 13 16.09 Clear CLR 19 15     78%     1023.7        
Feb 19 22:15 SSE 13 16.09 Clear CLR 19 15     78%     1023.7        
Feb 19 21:55 SSE 11 16.09 Clear CLR 18 15     83%     1023.4        
Feb 19 21:35 S 9 16.09 Clear CLR 19 15     78%     1023.4        
Feb 19 21:15 SSE 8 16.09 Clear CLR 20 15     73%     1023.4        
Feb 19 20:55 S 9 16.09 Clear CLR 19 15     78%     1023.4        
Feb 19 20:35 SSE 9 16.09 Mostly Clear FEW075 19 14     73%     1023.4        
Feb 19 20:15 SSE 11 16.09 Mostly Clear FEW075 19 14     73%     1023        
Feb 19 19:55 SSE 11 16.09 Partly Cloudy SCT075 20 15     73%     1023        
Feb 19 19:35 SSE 11 16.09 Mostly Cloudy BKN075 21 15     69%     1022.7        
Feb 19 19:15 SSE 11 16.09 Mostly Clear FEW075 22 15     65%   22 1022.7        
Feb 19 18:55 SSE 15 16.09 Clear CLR 22 15     65%   22 1022.7        
Feb 19 18:35 SSE 13 16.09 Mostly Clear FEW075 22 14     60%   22 1022.4        
Feb 19 18:15 SSE 11 16.09 Mostly Clear FEW075 22 14     60%   22 1022.4        
Feb 19 17:55 SSE 11 16.09 Partly Cloudy SCT075 22 14     60%   22 1022        
Feb 19 17:35 SSE 13 16.09 Mostly Cloudy BKN075 24 14     54%   24 1022        
Feb 19 17:15 S 11 16.09 Mostly Cloudy BKN075 24 14     54%   24 1021.7        
Feb 19 16:55 SSE 11 16.09 Mostly Cloudy BKN075 25 15     54%   25 1021.7        
Feb 19 16:35 SSE 13 16.09 Mostly Cloudy BKN075 25 15     54%   25 1021.7        
Feb 19 16:15 S 21 16.09 Cloudy FEW055 OVC075 26 14     48%   26 1021.3        
Feb 19 15:55 S 18 16.09 Cloudy SCT050 OVC075 26 14     48%   26 1021.7        
Feb 19 15:35 S 11 16.09 Cloudy SCT050 BKN065 OVC075 26 14     48%   26 1021.3        
Feb 19 15:15 S 13 16.09 Cloudy SCT060 OVC070 27 14     45%   27 1021.7        
Feb 19 14:55 S 18 16.09 Cloudy SCT055 OVC070 26 13     45%   26 1021.7        
Feb 19 14:35 SSE 17 16.09 Cloudy SCT050 OVC070 26 14     48%   26 1021.7        
Feb 19 14:15 SSE 22 16.09 Cloudy SCT050 OVC065 26 14     48%   26 1021.7        
Feb 19 13:55 S 22 16.09 Cloudy FEW045 BKN055 OVC065 26 14     48%   26 1021.7        
Feb 19 13:35 S 17 16.09 Mostly Cloudy SCT045 BKN070 25 15     54%   25 1022        
Feb 19 13:15 SSE 18 16.09 Mostly Cloudy SCT040 SCT046 BKN070 25 15     54%   25 1022.4        
Feb 19 12:55 SSE 24 16.09 Cloudy SCT039 OVC070 25 15     54%   25 1022.7        
Feb 19 12:35 SSE 22 16.09 Cloudy FEW036 OVC070 25 15     54%   25 1023        
Feb 19 12:15 S 17 16.09 Cloudy FEW034 OVC070 25 15     54%   25 1023.4        
Feb 19 11:55 SSE 17 16.09 Mostly Cloudy BKN070 24 16     61%   24 1023.7        
Feb 19 11:35 SSE 21 16.09 Mostly Clear FEW031 24 16     61%   24 1024.4        
Feb 19 10:15 SE 24 16.09 Partly Cloudy SCT022 SCT027 23 16     65%   23 1025.1        
Feb 19 09:55 SSE 17 16.09 Mostly Cloudy SCT020 BKN026 23 17     69%   23 1025.1        
Feb 19 09:35 SSE 17 16.09 Mostly Cloudy BKN019 22 17     73%   22 1025.1        
Feb 19 09:15 SSE 9 16.09 Mostly Cloudy FEW010 BKN015 21 17     78%     1025.1        
Feb 19 08:55 SE 8 16.09 Mostly Cloudy BKN010 BKN014 20 17     83%     1025.1        
Feb 19 08:35 ESE 15 16.09 Mostly Cloudy BKN008 BKN013 19 17     88%     1024.7        
Feb 19 08:15 ESE 15 16.09 Cloudy BKN006 OVC010 18 16     88%     1024.7        
Feb 19 07:55 ESE 15 16.09 Cloudy BKN005 OVC012 17 16     94%     1025.1        
Feb 19 07:35 ESE 11 16.09 Cloudy FEW002 BKN006 OVC012 16 16     100%     1024.7        
Feb 19 07:15 E 17 2.41 Fog/Mist OVC002 15 14     94%     1024.7        
Feb 19 06:55 Calm 2.82 Fog/Mist BKN002 BKN070 15 14     94%     1024.1        
Feb 19 06:35 NE 9 14.48 Partly Cloudy SCT070 15 14     94%     1024.1        
Feb 19 06:15 ENE 8 16.09 Partly Cloudy SCT008 15 14     94%     1023.7        
Jun 12 07:35 ESE 9 16.09 Clear CLR 25 22     83%   26 1020.7        
Jun 11 21:15 Calm 16.09 Clear   25 23     89%   26 1019.3        
Notice The following observation data may not be complete
Jun 11 20:35   16.09 Cloudy FEW055 OVC065          %              
Jun 11 17:35 SSE 9 16.09 Light Rain SCT032 BKN050 BKN065 23 21     89%   24 1017.6        
Notice The following observation data may not be complete
Jun 11 17:15 SE 22 4.83 Clear     21      %     1018.3        
Jun 11 14:55 E 15 16.09 Mostly Clear FEW047 FEW060 33 20     46%   35 1018.3        
Jun 11 02:35 Calm 16.09 Mostly Clear FEW055 20 18     88%     1017.6        
Jun 10 23:35 Calm 16.09 Clear CLR 21 18     83%     1018        
Jun 10 12:55 SE 15 16.09 Mostly Cloudy FEW055 BKN080 30 15     40%   30 1018        
Jun 09 22:55 Calm 16.09 Mostly Cloudy BKN060 BKN070 20 18     88%     1015.2        
Jun 09 16:35 W 13 16.09 Clear CLR 30 14     38%   29 1013.2        
Notice The following observation data may not be complete
Jun 09 12:35   16.09 Partly Cloudy SCT055          %              
Jun 08 08:35 Calm 16.09 Clear CLR 21 15     69%     1013.2        
Jun 07 22:15 N 11 16.09 Mostly Cloudy BKN070 BKN080 23 14     57%   23 1010.8        
Jun 07 20:15 NNE 8 16.09 Mostly Cloudy BKN060 BKN070 25 17     61%   25 1009.5        
Jun 07 19:15 NNE 17 16.09 Mostly Clear FEW080 27 15     48%   27 1009.2        
Notice The following observation data may not be complete
Jun 07 14:35   16.09 Mostly Clear FEW050 FEW055          %              
Jun 07 12:35 N 18 16.09 Mostly Cloudy BKN037 28 19     58%   29 1008.1        
Jun 07 11:55 N 13 16.09 Partly Cloudy SCT032 SCT037 28 19     58%   29 1008.1        
Jun 07 09:35 NNE 13 16.09 Clear CLR 25 18     65%   25 1008.5        
Notice The following observation data may not be complete
Jun 06 09:15   16.09 Cloudy OVC005          %              
Jun 05 20:15 E 11 16.09 Cloudy BKN004 BKN080 OVC090 23 22     94%   24 1008.8